Year,Month,Day,Hour,Minute,Value (Times are PST for temperature in C)
2018,08,15,00,00,20.20
2018,08,15,00,01,20.10
2018,08,15,00,02,20.00
2018,08,15,00,03,19.90
2018,08,15,00,04,19.90
2018,08,15,00,05,19.80
2018,08,15,00,06,19.80
2018,08,15,00,07,19.80
2018,08,15,00,08,19.80
2018,08,15,00,09,19.80
2018,08,15,00,10,19.70
2018,08,15,00,11,19.70
2018,08,15,00,12,19.70
2018,08,15,00,13,19.70
2018,08,15,00,14,19.70
2018,08,15,00,15,19.70
2018,08,15,00,16,19.80
2018,08,15,00,17,19.80
2018,08,15,00,18,19.90
2018,08,15,00,19,20.00
2018,08,15,00,20,20.00
2018,08,15,00,21,20.00
2018,08,15,00,22,20.10
2018,08,15,00,23,20.10
2018,08,15,00,24,20.20
2018,08,15,00,25,20.30
2018,08,15,00,26,20.40
2018,08,15,00,27,20.40
2018,08,15,00,28,20.50
2018,08,15,00,29,20.50
2018,08,15,00,30,20.60
2018,08,15,00,31,20.60
2018,08,15,00,32,20.60
2018,08,15,00,33,20.60
2018,08,15,00,34,20.60
2018,08,15,00,35,20.60
2018,08,15,00,36,20.60
2018,08,15,00,37,20.60
2018,08,15,00,38,20.50
2018,08,15,00,39,20.40
2018,08,15,00,40,20.30
2018,08,15,00,41,20.20
2018,08,15,00,42,20.10
2018,08,15,00,43,20.00
2018,08,15,00,44,20.00
2018,08,15,00,45,20.00
2018,08,15,00,46,20.00
2018,08,15,00,47,20.10
2018,08,15,00,48,20.10
2018,08,15,00,49,20.20
2018,08,15,00,50,20.20
2018,08,15,00,51,20.30
2018,08,15,00,52,20.40
2018,08,15,00,53,20.50
2018,08,15,00,54,20.40
2018,08,15,00,55,20.10
2018,08,15,00,56,19.60
2018,08,15,00,57,18.90
2018,08,15,00,58,18.40
2018,08,15,00,59,18.00
2018,08,15,01,00,17.80
2018,08,15,01,01,17.60
2018,08,15,01,02,17.60
2018,08,15,01,03,17.60
2018,08,15,01,04,17.50
2018,08,15,01,05,17.40
2018,08,15,01,06,17.30
2018,08,15,01,07,17.20
2018,08,15,01,08,17.20
2018,08,15,01,09,17.30
2018,08,15,01,10,17.40
2018,08,15,01,11,17.60
2018,08,15,01,12,17.90
2018,08,15,01,13,18.30
2018,08,15,01,14,18.70
2018,08,15,01,15,18.90
2018,08,15,01,16,19.20
2018,08,15,01,17,19.30
2018,08,15,01,18,19.30
2018,08,15,01,19,19.30
2018,08,15,01,20,19.40
2018,08,15,01,21,19.40
2018,08,15,01,22,19.50
2018,08,15,01,23,19.40
2018,08,15,01,24,19.40
2018,08,15,01,25,19.30
2018,08,15,01,26,19.20
2018,08,15,01,27,19.00
2018,08,15,01,28,18.70
2018,08,15,01,29,18.40
2018,08,15,01,30,18.10
2018,08,15,01,31,17.70
2018,08,15,01,32,17.40
2018,08,15,01,33,17.10
2018,08,15,01,34,16.80
2018,08,15,01,35,16.50
2018,08,15,01,36,16.00
2018,08,15,01,37,15.60
2018,08,15,01,38,15.30
2018,08,15,01,39,14.90
2018,08,15,01,40,14.70
2018,08,15,01,41,14.30
2018,08,15,01,42,14.20
2018,08,15,01,43,14.10
2018,08,15,01,44,13.90
2018,08,15,01,45,13.80
2018,08,15,01,46,13.60
2018,08,15,01,47,13.40
2018,08,15,01,48,13.30
2018,08,15,01,49,13.30
2018,08,15,01,50,13.30
2018,08,15,01,51,13.30
2018,08,15,01,52,13.30
2018,08,15,01,53,13.40
2018,08,15,01,54,13.40
2018,08,15,01,55,13.50
2018,08,15,01,56,13.50
2018,08,15,01,57,13.60
2018,08,15,01,58,13.60
2018,08,15,01,59,13.70
2018,08,15,02,00,13.70
2018,08,15,02,01,13.80
2018,08,15,02,02,13.90
2018,08,15,02,03,13.90
2018,08,15,02,04,13.90
2018,08,15,02,05,14.00
2018,08,15,02,06,14.00
2018,08,15,02,07,14.00
2018,08,15,02,08,14.00
2018,08,15,02,09,14.10
2018,08,15,02,10,14.10
2018,08,15,02,11,14.10
2018,08,15,02,12,14.10
2018,08,15,02,13,14.10
2018,08,15,02,14,14.10
2018,08,15,02,15,14.20
2018,08,15,02,16,14.20
2018,08,15,02,17,14.20
2018,08,15,02,18,14.20
2018,08,15,02,19,14.20
2018,08,15,02,20,14.20
2018,08,15,02,21,14.30
2018,08,15,02,22,14.30
2018,08,15,02,23,14.30
2018,08,15,02,24,14.30
2018,08,15,02,25,14.30
2018,08,15,02,26,14.30
2018,08,15,02,27,14.30
2018,08,15,02,28,14.40
2018,08,15,02,29,14.40
2018,08,15,02,30,14.40
2018,08,15,02,31,14.40
2018,08,15,02,32,14.40
2018,08,15,02,33,14.40
2018,08,15,02,34,14.40
2018,08,15,02,35,14.40
2018,08,15,02,36,14.40
2018,08,15,02,37,14.40
2018,08,15,02,38,14.40
2018,08,15,02,39,14.40
2018,08,15,02,40,14.40
2018,08,15,02,41,14.40
2018,08,15,02,42,14.40
2018,08,15,02,43,14.40
2018,08,15,02,44,14.40
2018,08,15,02,45,14.40
2018,08,15,02,46,14.40
2018,08,15,02,47,14.40
2018,08,15,02,48,14.40
2018,08,15,02,49,14.40
2018,08,15,02,50,14.40
2018,08,15,02,51,14.40
2018,08,15,02,52,14.40
2018,08,15,02,53,14.40
2018,08,15,02,54,14.40
2018,08,15,02,55,14.40
2018,08,15,02,56,14.40
2018,08,15,02,57,14.40
2018,08,15,02,58,14.40
2018,08,15,02,59,14.40
2018,08,15,03,00,14.40
2018,08,15,03,01,14.40
2018,08,15,03,02,14.50
2018,08,15,03,03,14.50
2018,08,15,03,04,14.50
2018,08,15,03,05,14.50
2018,08,15,03,06,14.60
2018,08,15,03,07,14.60
2018,08,15,03,08,14.60
2018,08,15,03,09,14.70
2018,08,15,03,10,14.70
2018,08,15,03,11,14.70
2018,08,15,03,12,14.70
2018,08,15,03,13,14.70
2018,08,15,03,14,14.70
2018,08,15,03,15,14.70
2018,08,15,03,16,14.70
2018,08,15,03,17,14.70
2018,08,15,03,18,14.60
2018,08,15,03,19,14.60
2018,08,15,03,20,14.60
2018,08,15,03,21,14.60
2018,08,15,03,22,14.50
2018,08,15,03,23,14.50
2018,08,15,03,24,14.40
2018,08,15,03,25,14.40
2018,08,15,03,26,14.40
2018,08,15,03,27,14.30
2018,08,15,03,28,14.30
2018,08,15,03,29,14.30
2018,08,15,03,30,14.30
2018,08,15,03,31,14.30
2018,08,15,03,32,14.30
2018,08,15,03,33,14.30
2018,08,15,03,34,14.30
2018,08,15,03,35,14.30
2018,08,15,03,36,14.40
2018,08,15,03,37,14.50
2018,08,15,03,38,14.50
2018,08,15,03,39,14.50
2018,08,15,03,40,14.60
2018,08,15,03,41,14.60
2018,08,15,03,42,14.70
2018,08,15,03,43,14.70
2018,08,15,03,44,14.70
2018,08,15,03,45,14.60
2018,08,15,03,46,14.60
2018,08,15,03,47,14.60
2018,08,15,03,48,14.60
2018,08,15,03,49,14.60
2018,08,15,03,50,14.60
2018,08,15,03,51,14.60
2018,08,15,03,52,14.60
2018,08,15,03,53,14.50
2018,08,15,03,54,14.50
2018,08,15,03,55,14.50
2018,08,15,03,56,14.60
2018,08,15,03,57,14.60
2018,08,15,03,58,14.70
2018,08,15,03,59,14.80
2018,08,15,04,00,14.90
2018,08,15,04,01,15.10
2018,08,15,04,02,15.30
2018,08,15,04,03,15.40
2018,08,15,04,04,15.60
2018,08,15,04,05,15.60
2018,08,15,04,06,15.70
2018,08,15,04,07,15.80
2018,08,15,04,08,15.80
2018,08,15,04,09,15.90
2018,08,15,04,10,15.90
2018,08,15,04,11,16.00
2018,08,15,04,12,16.00
2018,08,15,04,13,16.00
2018,08,15,04,14,16.10
2018,08,15,04,15,16.10
2018,08,15,04,16,16.10
2018,08,15,04,17,16.10
2018,08,15,04,18,16.10
2018,08,15,04,19,16.10
2018,08,15,04,20,16.10
2018,08,15,04,21,16.00
2018,08,15,04,22,16.00
2018,08,15,04,23,15.90
2018,08,15,04,24,15.90
2018,08,15,04,25,15.80
2018,08,15,04,26,15.80
2018,08,15,04,27,15.70
2018,08,15,04,28,15.70
2018,08,15,04,29,15.60
2018,08,15,04,30,15.50
2018,08,15,04,31,15.40
2018,08,15,04,32,15.40
2018,08,15,04,33,15.40
2018,08,15,04,34,15.30
2018,08,15,04,35,15.30
2018,08,15,04,36,15.30
2018,08,15,04,37,15.30
2018,08,15,04,38,15.30
2018,08,15,04,39,15.20
2018,08,15,04,40,15.10
2018,08,15,04,41,15.00
2018,08,15,04,42,14.90
2018,08,15,04,43,14.80
2018,08,15,04,44,14.80
2018,08,15,04,45,14.70
2018,08,15,04,46,14.70
2018,08,15,04,47,14.60
2018,08,15,04,48,14.60
2018,08,15,04,49,14.60
2018,08,15,04,50,14.50
2018,08,15,04,51,14.50
2018,08,15,04,52,14.50
2018,08,15,04,53,14.50
2018,08,15,04,54,14.40
2018,08,15,04,55,14.50
2018,08,15,04,56,14.40
2018,08,15,04,57,14.40
2018,08,15,04,58,14.40
2018,08,15,04,59,14.30
2018,08,15,05,00,14.30
2018,08,15,05,01,14.30
2018,08,15,05,02,14.30
2018,08,15,05,03,14.30
2018,08,15,05,04,14.30
2018,08,15,05,05,14.30
2018,08,15,05,06,14.30
2018,08,15,05,07,14.30
2018,08,15,05,08,14.30
2018,08,15,05,09,14.30
2018,08,15,05,10,14.30
2018,08,15,05,11,14.30
2018,08,15,05,12,14.30
2018,08,15,05,13,14.30
2018,08,15,05,14,14.20
2018,08,15,05,15,14.10
2018,08,15,05,16,14.00
2018,08,15,05,17,13.80
2018,08,15,05,18,13.70
2018,08,15,05,19,13.50
2018,08,15,05,20,13.50
2018,08,15,05,21,13.60
2018,08,15,05,22,13.60
2018,08,15,05,23,13.50
2018,08,15,05,24,13.40
2018,08,15,05,25,13.50
2018,08,15,05,26,13.70
2018,08,15,05,27,13.70
2018,08,15,05,28,13.70
2018,08,15,05,29,13.80
2018,08,15,05,30,13.90
2018,08,15,05,31,13.90
2018,08,15,05,32,14.00
2018,08,15,05,33,14.20
2018,08,15,05,34,14.20
2018,08,15,05,35,14.30
2018,08,15,05,36,14.40
2018,08,15,05,37,14.50
2018,08,15,05,38,14.70
2018,08,15,05,39,14.80
2018,08,15,05,40,14.90
2018,08,15,05,41,14.90
2018,08,15,05,42,15.00
2018,08,15,05,43,15.10
2018,08,15,05,44,15.20
2018,08,15,05,45,15.40
2018,08,15,05,46,15.40
2018,08,15,05,47,15.50
2018,08,15,05,48,15.50
2018,08,15,05,49,15.50
2018,08,15,05,50,15.60
2018,08,15,05,51,15.60
2018,08,15,05,52,15.50
2018,08,15,05,53,15.50
2018,08,15,05,54,15.40
2018,08,15,05,55,15.40
2018,08,15,05,56,15.40
2018,08,15,05,57,15.40
2018,08,15,05,58,15.40
2018,08,15,05,59,15.40
2018,08,15,06,00,15.40
2018,08,15,06,01,15.40
2018,08,15,06,02,15.40
2018,08,15,06,03,15.40
2018,08,15,06,04,15.40
2018,08,15,06,05,15.40
2018,08,15,06,06,15.40
2018,08,15,06,07,15.40
2018,08,15,06,08,15.40
2018,08,15,06,09,15.50
2018,08,15,06,10,15.50
2018,08,15,06,11,15.50
2018,08,15,06,12,15.60
2018,08,15,06,13,15.60
2018,08,15,06,14,15.60
2018,08,15,06,15,15.60
2018,08,15,06,16,15.70
2018,08,15,06,17,15.60
2018,08,15,06,18,15.70
2018,08,15,06,19,15.70
2018,08,15,06,20,15.70
2018,08,15,06,21,15.60
2018,08,15,06,22,15.70
2018,08,15,06,23,15.70
2018,08,15,06,24,15.70
2018,08,15,06,25,15.70
2018,08,15,06,26,15.70
2018,08,15,06,27,15.60
2018,08,15,06,28,15.60
2018,08,15,06,29,15.60
2018,08,15,06,30,15.50
2018,08,15,06,31,15.50
2018,08,15,06,32,15.40
2018,08,15,06,33,15.40
2018,08,15,06,34,15.30
2018,08,15,06,35,15.30
2018,08,15,06,36,15.20
2018,08,15,06,37,15.20
2018,08,15,06,38,15.20
2018,08,15,06,39,15.20
2018,08,15,06,40,15.20
2018,08,15,06,41,15.20
2018,08,15,06,42,15.10
2018,08,15,06,43,15.10
2018,08,15,06,44,15.10
2018,08,15,06,45,15.10
2018,08,15,06,46,15.10
2018,08,15,06,47,15.00
2018,08,15,06,48,15.00
2018,08,15,06,49,15.00
2018,08,15,06,50,14.90
2018,08,15,06,51,14.90
2018,08,15,06,52,14.90
2018,08,15,06,53,14.90
2018,08,15,06,54,14.80
2018,08,15,06,55,14.70
2018,08,15,06,56,14.60
2018,08,15,06,57,14.40
2018,08,15,06,58,14.30
2018,08,15,06,59,14.20
2018,08,15,07,00,14.20
2018,08,15,07,01,14.10
2018,08,15,07,02,14.00
2018,08,15,07,03,14.00
2018,08,15,07,04,13.90
2018,08,15,07,05,13.90
2018,08,15,07,06,13.80
2018,08,15,07,07,13.80
2018,08,15,07,08,13.80
2018,08,15,07,09,13.80
2018,08,15,07,10,13.80
2018,08,15,07,11,13.80
2018,08,15,07,12,13.80
2018,08,15,07,13,13.80
2018,08,15,07,14,13.80
2018,08,15,07,15,13.80
2018,08,15,07,16,13.80
2018,08,15,07,17,13.80
2018,08,15,07,18,13.80
2018,08,15,07,19,13.90
2018,08,15,07,20,13.90
2018,08,15,07,21,13.90
2018,08,15,07,22,14.00
2018,08,15,07,23,14.00
2018,08,15,07,24,14.10
2018,08,15,07,25,14.10
2018,08,15,07,26,14.10
2018,08,15,07,27,14.10
2018,08,15,07,28,14.20
2018,08,15,07,29,14.20
2018,08,15,07,30,14.20
2018,08,15,07,31,14.20
2018,08,15,07,32,14.20
2018,08,15,07,33,14.20
2018,08,15,07,34,14.20
2018,08,15,07,35,14.30
2018,08,15,07,36,14.30
2018,08,15,07,37,14.30
2018,08,15,07,38,14.30
2018,08,15,07,39,14.40
2018,08,15,07,40,14.40
2018,08,15,07,41,14.40
2018,08,15,07,42,14.50
2018,08,15,07,43,14.50
2018,08,15,07,44,14.50
2018,08,15,07,45,14.50
2018,08,15,07,46,14.50
2018,08,15,07,47,14.50
2018,08,15,07,48,14.50
2018,08,15,07,49,14.60
2018,08,15,07,50,14.70
2018,08,15,07,51,14.80
2018,08,15,07,52,14.80
2018,08,15,07,53,14.80
2018,08,15,07,54,14.80
2018,08,15,07,55,14.60
2018,08,15,07,56,14.50
2018,08,15,07,57,14.40
2018,08,15,07,58,14.20
2018,08,15,07,59,14.10
2018,08,15,08,00,14.00
2018,08,15,08,01,13.90
2018,08,15,08,02,13.90
2018,08,15,08,03,13.90
2018,08,15,08,04,13.80
2018,08,15,08,05,13.70
2018,08,15,08,06,13.70
2018,08,15,08,07,13.70
2018,08,15,08,08,13.70
2018,08,15,08,09,13.70
2018,08,15,08,10,13.70
2018,08,15,08,11,13.60
2018,08,15,08,12,13.60
2018,08,15,08,13,13.60
2018,08,15,08,14,13.60
2018,08,15,08,15,13.60
2018,08,15,08,16,13.60
2018,08,15,08,17,13.50
2018,08,15,08,18,13.50
2018,08,15,08,19,13.50
2018,08,15,08,20,13.40
2018,08,15,08,21,13.40
2018,08,15,08,22,13.40
2018,08,15,08,23,13.40
2018,08,15,08,24,13.30
2018,08,15,08,25,13.30
2018,08,15,08,26,13.30
2018,08,15,08,27,13.20
2018,08,15,08,28,13.20
2018,08,15,08,29,13.10
2018,08,15,08,30,13.10
2018,08,15,08,31,13.00
2018,08,15,08,32,13.00
2018,08,15,08,33,12.90
2018,08,15,08,34,12.80
2018,08,15,08,35,12.80
2018,08,15,08,36,12.70
2018,08,15,08,37,12.70
2018,08,15,08,38,12.70
2018,08,15,08,39,12.70
2018,08,15,08,40,12.70
2018,08,15,08,41,12.80
2018,08,15,08,42,12.80
2018,08,15,08,43,12.80
2018,08,15,08,44,12.90
2018,08,15,08,45,12.90
2018,08,15,08,46,13.00
2018,08,15,08,47,13.00
2018,08,15,08,48,13.10
2018,08,15,08,49,13.20
2018,08,15,08,50,13.20
2018,08,15,08,51,13.30
2018,08,15,08,52,13.30
2018,08,15,08,53,13.40
2018,08,15,08,54,13.40
2018,08,15,08,55,13.40
2018,08,15,08,56,13.40
2018,08,15,08,57,13.40
2018,08,15,08,58,13.40
2018,08,15,08,59,13.40
2018,08,15,09,00,13.40
2018,08,15,09,01,13.60
2018,08,15,09,02,13.70
2018,08,15,09,03,13.80
2018,08,15,09,04,13.80
2018,08,15,09,05,13.80
2018,08,15,09,06,13.80
2018,08,15,09,07,13.80
2018,08,15,09,08,13.80
2018,08,15,09,09,13.80
2018,08,15,09,10,13.80
2018,08,15,09,11,13.70
2018,08,15,09,12,13.70
2018,08,15,09,13,13.70
2018,08,15,09,14,13.60
2018,08,15,09,15,13.60
2018,08,15,09,16,13.50
2018,08,15,09,17,13.40
2018,08,15,09,18,13.40
2018,08,15,09,19,13.30
2018,08,15,09,20,13.30
2018,08,15,09,21,13.30
2018,08,15,09,22,13.30
2018,08,15,09,23,13.30
2018,08,15,09,24,13.40
2018,08,15,09,25,13.50
2018,08,15,09,26,13.60
2018,08,15,09,27,13.70
2018,08,15,09,28,13.70
2018,08,15,09,29,13.70
2018,08,15,09,30,13.60
2018,08,15,09,31,13.60
2018,08,15,09,32,13.60
2018,08,15,09,33,13.70
2018,08,15,09,34,13.70
2018,08,15,09,35,13.70
2018,08,15,09,36,13.80
2018,08,15,09,37,13.80
2018,08,15,09,38,13.80
2018,08,15,09,39,13.80
2018,08,15,09,40,13.80
2018,08,15,09,41,13.80
2018,08,15,09,42,13.80
2018,08,15,09,43,13.80
2018,08,15,09,44,13.80
2018,08,15,09,45,13.80
2018,08,15,09,46,13.80
2018,08,15,09,47,13.80
2018,08,15,09,48,13.80
2018,08,15,09,49,13.80
2018,08,15,09,50,13.90
2018,08,15,09,51,14.00
2018,08,15,09,52,14.10
2018,08,15,09,53,14.20
2018,08,15,09,54,14.20
2018,08,15,09,55,14.20
2018,08,15,09,56,14.20
2018,08,15,09,57,14.30
2018,08,15,09,58,14.20
2018,08,15,09,59,14.30
2018,08,15,10,00,14.30
2018,08,15,10,01,14.30
2018,08,15,10,02,14.30
2018,08,15,10,03,14.30
2018,08,15,10,04,14.30
2018,08,15,10,05,14.30
2018,08,15,10,06,14.30
2018,08,15,10,07,14.30
2018,08,15,10,08,14.30
2018,08,15,10,09,14.30
2018,08,15,10,10,14.40
2018,08,15,10,11,14.40
2018,08,15,10,12,14.40
2018,08,15,10,13,14.40
2018,08,15,10,14,14.40
2018,08,15,10,15,14.30
2018,08,15,10,16,14.30
2018,08,15,10,17,14.30
2018,08,15,10,18,14.30
2018,08,15,10,19,14.30
2018,08,15,10,20,14.30
2018,08,15,10,21,14.30
2018,08,15,10,22,14.40
2018,08,15,10,23,14.40
2018,08,15,10,24,14.40
2018,08,15,10,25,14.40
2018,08,15,10,26,14.40
2018,08,15,10,27,14.40
2018,08,15,10,28,14.40
2018,08,15,10,29,14.40
2018,08,15,10,30,14.40
2018,08,15,10,31,14.40
2018,08,15,10,32,14.30
2018,08,15,10,33,14.20
2018,08,15,10,34,14.20
2018,08,15,10,35,14.20
2018,08,15,10,36,14.20
2018,08,15,10,37,14.10
2018,08,15,10,38,14.10
2018,08,15,10,39,14.00
2018,08,15,10,40,13.90
2018,08,15,10,41,13.80
2018,08,15,10,42,13.70
2018,08,15,10,43,13.70
2018,08,15,10,44,13.70
2018,08,15,10,45,13.60
2018,08,15,10,46,13.60
2018,08,15,10,47,13.50
2018,08,15,10,48,13.50
2018,08,15,10,49,13.40
2018,08,15,10,50,13.40
2018,08,15,10,51,13.40
2018,08,15,10,52,13.40
2018,08,15,10,53,13.40
2018,08,15,10,54,13.40
2018,08,15,10,55,13.40
2018,08,15,10,56,13.50
2018,08,15,10,57,13.50
2018,08,15,10,58,13.40
2018,08,15,10,59,13.50
2018,08,15,11,00,13.50
2018,08,15,11,01,13.50
2018,08,15,11,02,13.40
2018,08,15,11,03,13.30
2018,08,15,11,04,13.30
2018,08,15,11,05,13.30
2018,08,15,11,06,13.30
2018,08,15,11,07,13.30
2018,08,15,11,08,13.40
2018,08,15,11,09,13.40
2018,08,15,11,10,13.40
2018,08,15,11,11,13.40
2018,08,15,11,12,13.40
2018,08,15,11,13,13.30
2018,08,15,11,14,13.30
2018,08,15,11,15,13.20
2018,08,15,11,16,13.20
2018,08,15,11,17,13.20
2018,08,15,11,18,13.20
2018,08,15,11,19,13.20
2018,08,15,11,20,13.30
2018,08,15,11,21,13.30
2018,08,15,11,22,13.30
2018,08,15,11,23,13.40
2018,08,15,11,24,13.50
2018,08,15,11,25,13.50
2018,08,15,11,26,13.60
2018,08,15,11,27,13.70
2018,08,15,11,28,13.70
2018,08,15,11,29,13.80
2018,08,15,11,30,13.90
2018,08,15,11,31,14.00
2018,08,15,11,32,14.00
2018,08,15,11,33,14.10
2018,08,15,11,34,14.10
2018,08,15,11,35,14.20
2018,08,15,11,36,14.20
2018,08,15,11,37,14.30
2018,08,15,11,38,14.30
2018,08,15,11,39,14.40
2018,08,15,11,40,14.50
2018,08,15,11,41,14.60
2018,08,15,11,42,14.70
2018,08,15,11,43,14.70
2018,08,15,11,44,14.80
2018,08,15,11,45,14.90
2018,08,15,11,46,15.00
2018,08,15,11,47,15.00
2018,08,15,11,48,15.10
2018,08,15,11,49,15.20
2018,08,15,11,50,15.20
2018,08,15,11,51,15.20
2018,08,15,11,52,15.10
2018,08,15,11,53,15.10
2018,08,15,11,54,15.00
2018,08,15,11,55,15.00
2018,08,15,11,56,14.90
2018,08,15,11,57,14.80
2018,08,15,11,58,14.80
2018,08,15,11,59,14.80
2018,08,15,12,00,14.80
2018,08,15,12,01,14.90
2018,08,15,12,02,15.10
2018,08,15,12,03,15.30
2018,08,15,12,04,15.40
2018,08,15,12,05,15.50
2018,08,15,12,06,15.60
2018,08,15,12,07,15.70
2018,08,15,12,08,15.80
2018,08,15,12,09,15.80
2018,08,15,12,10,15.90
2018,08,15,12,11,15.90
2018,08,15,12,12,15.90
2018,08,15,12,13,15.90
2018,08,15,12,14,15.90
2018,08,15,12,15,15.80
2018,08,15,12,16,15.90
2018,08,15,12,17,16.00
2018,08,15,12,18,16.10
2018,08,15,12,19,16.00
2018,08,15,12,20,16.00
2018,08,15,12,21,15.70
2018,08,15,12,22,15.40
2018,08,15,12,23,15.20
2018,08,15,12,24,15.10
2018,08,15,12,25,15.10
2018,08,15,12,26,15.00
2018,08,15,12,27,14.90
2018,08,15,12,28,14.70
2018,08,15,12,29,14.50
2018,08,15,12,30,14.40
2018,08,15,12,31,14.30
2018,08,15,12,32,14.10
2018,08,15,12,33,14.00
2018,08,15,12,34,13.90
2018,08,15,12,35,13.90
2018,08,15,12,36,14.00
2018,08,15,12,37,14.10
2018,08,15,12,38,14.10
2018,08,15,12,39,14.10
2018,08,15,12,40,14.10
2018,08,15,12,41,14.10
2018,08,15,12,42,14.10
2018,08,15,12,43,14.10
2018,08,15,12,44,14.10
2018,08,15,12,45,14.20
2018,08,15,12,46,14.30
2018,08,15,12,47,14.40
2018,08,15,12,48,14.60
2018,08,15,12,49,14.90
2018,08,15,12,50,15.20
2018,08,15,12,51,15.70
2018,08,15,12,52,16.20
2018,08,15,12,53,16.60
2018,08,15,12,54,16.90
2018,08,15,12,55,17.10
2018,08,15,12,56,17.20
2018,08,15,12,57,17.20
2018,08,15,12,58,17.30
2018,08,15,12,59,17.40
2018,08,15,13,00,17.50
2018,08,15,13,01,17.50
2018,08,15,13,02,17.60
2018,08,15,13,03,17.40
2018,08,15,13,04,17.20
2018,08,15,13,05,16.80
2018,08,15,13,06,16.50
2018,08,15,13,07,16.40
2018,08,15,13,08,16.30
2018,08,15,13,09,16.30
2018,08,15,13,10,16.40
2018,08,15,13,11,16.30
2018,08,15,13,12,16.20
2018,08,15,13,13,16.10
2018,08,15,13,14,16.10
2018,08,15,13,15,16.10
2018,08,15,13,16,16.30
2018,08,15,13,17,16.60
2018,08,15,13,18,16.80
2018,08,15,13,19,17.10
2018,08,15,13,20,17.20
2018,08,15,13,21,17.30
2018,08,15,13,22,17.30
2018,08,15,13,23,17.30
2018,08,15,13,24,17.00
2018,08,15,13,25,16.80
2018,08,15,13,26,16.60
2018,08,15,13,27,16.30
2018,08,15,13,28,16.10
2018,08,15,13,29,16.00
2018,08,15,13,30,15.70
2018,08,15,13,31,15.50
2018,08,15,13,32,15.30
2018,08,15,13,33,15.20
2018,08,15,13,34,15.20
2018,08,15,13,35,15.30
2018,08,15,13,36,15.50
2018,08,15,13,37,15.70
2018,08,15,13,38,15.70
2018,08,15,13,39,15.60
2018,08,15,13,40,15.60
2018,08,15,13,41,15.50
2018,08,15,13,42,15.40
2018,08,15,13,43,15.40
2018,08,15,13,44,15.40
2018,08,15,13,45,15.30
2018,08,15,13,46,15.30
2018,08,15,13,47,15.20
2018,08,15,13,48,15.30
2018,08,15,13,49,15.60
2018,08,15,13,50,16.10
2018,08,15,13,51,16.60
2018,08,15,13,52,16.70
2018,08,15,13,53,16.70
2018,08,15,13,54,16.70
2018,08,15,13,55,16.60
2018,08,15,13,56,16.70
2018,08,15,13,57,16.90
2018,08,15,13,58,17.20
2018,08,15,13,59,17.30
2018,08,15,14,00,17.20
2018,08,15,14,01,17.20
2018,08,15,14,02,17.40
2018,08,15,14,03,17.60
2018,08,15,14,04,17.50
2018,08,15,14,05,17.60
2018,08,15,14,06,17.80
2018,08,15,14,07,17.90
2018,08,15,14,08,18.00
2018,08,15,14,09,18.10
2018,08,15,14,10,18.10
2018,08,15,14,11,18.20
2018,08,15,14,12,18.30
2018,08,15,14,13,18.30
2018,08,15,14,14,18.30
2018,08,15,14,15,18.20
2018,08,15,14,16,18.30
2018,08,15,14,17,18.30
2018,08,15,14,18,18.30
2018,08,15,14,19,18.40
2018,08,15,14,20,18.50
2018,08,15,14,21,18.50
2018,08,15,14,22,18.20
2018,08,15,14,23,18.10
2018,08,15,14,24,18.20
2018,08,15,14,25,18.30
2018,08,15,14,26,18.30
2018,08,15,14,27,18.30
2018,08,15,14,28,18.40
2018,08,15,14,29,18.50
2018,08,15,14,30,18.60
2018,08,15,14,31,18.60
2018,08,15,14,32,18.70
2018,08,15,14,33,18.70
2018,08,15,14,34,18.70
2018,08,15,14,35,18.70
2018,08,15,14,36,18.70
2018,08,15,14,37,18.80
2018,08,15,14,38,18.70
2018,08,15,14,39,18.50
2018,08,15,14,40,18.20
2018,08,15,14,41,18.20
2018,08,15,14,42,18.20
2018,08,15,14,43,18.30
2018,08,15,14,44,18.00
2018,08,15,14,45,17.50
2018,08,15,14,46,16.80
2018,08,15,14,47,16.40
2018,08,15,14,48,16.10
2018,08,15,14,49,15.80
2018,08,15,14,50,15.50
2018,08,15,14,51,15.20
2018,08,15,14,52,14.90
2018,08,15,14,53,14.70
2018,08,15,14,54,14.40
2018,08,15,14,55,14.20
2018,08,15,14,56,14.10
2018,08,15,14,57,13.90
2018,08,15,14,58,13.70
2018,08,15,14,59,13.60
2018,08,15,15,00,13.50
2018,08,15,15,01,13.40
2018,08,15,15,02,13.40
2018,08,15,15,03,13.40
2018,08,15,15,04,13.30
2018,08,15,15,05,13.30
2018,08,15,15,06,13.30
2018,08,15,15,07,13.30
2018,08,15,15,08,13.30
2018,08,15,15,09,13.30
2018,08,15,15,10,13.40
2018,08,15,15,11,13.50
2018,08,15,15,12,13.70
2018,08,15,15,13,13.80
2018,08,15,15,14,13.80
2018,08,15,15,15,13.80
2018,08,15,15,16,13.60
2018,08,15,15,17,13.40
2018,08,15,15,18,13.20
2018,08,15,15,19,13.10
2018,08,15,15,20,13.00
2018,08,15,15,21,13.00
2018,08,15,15,22,13.00
2018,08,15,15,23,13.00
2018,08,15,15,24,13.00
2018,08,15,15,25,12.90
2018,08,15,15,26,12.80
2018,08,15,15,27,12.70
2018,08,15,15,28,12.70
2018,08,15,15,29,12.60
2018,08,15,15,30,12.60
2018,08,15,15,31,12.60
2018,08,15,15,32,12.50
2018,08,15,15,33,12.40
2018,08,15,15,34,12.50
2018,08,15,15,35,12.50
2018,08,15,15,36,12.60
2018,08,15,15,37,12.60
2018,08,15,15,38,12.60
2018,08,15,15,39,12.60
2018,08,15,15,40,12.50
2018,08,15,15,41,12.40
2018,08,15,15,42,12.40
2018,08,15,15,43,12.40
2018,08,15,15,44,12.40
2018,08,15,15,45,12.40
2018,08,15,15,46,12.40
2018,08,15,15,47,12.40
2018,08,15,15,48,12.50
2018,08,15,15,49,12.60
2018,08,15,15,50,12.80
2018,08,15,15,51,13.10
2018,08,15,15,52,13.40
2018,08,15,15,53,13.70
2018,08,15,15,54,13.80
2018,08,15,15,55,13.50
2018,08,15,15,56,13.20
2018,08,15,15,57,12.90
2018,08,15,15,58,12.70
2018,08,15,15,59,12.50
2018,08,15,16,00,12.40
2018,08,15,16,01,12.40
2018,08,15,16,02,12.30
2018,08,15,16,03,12.30
2018,08,15,16,04,12.30
2018,08,15,16,05,12.20
2018,08,15,16,06,12.10
2018,08,15,16,07,12.10
2018,08,15,16,08,12.10
2018,08,15,16,09,12.10
2018,08,15,16,10,12.10
2018,08,15,16,11,12.10
2018,08,15,16,12,12.10
2018,08,15,16,13,12.10
2018,08,15,16,14,12.20
2018,08,15,16,15,12.20
2018,08,15,16,16,12.30
2018,08,15,16,17,12.40
2018,08,15,16,18,12.40
2018,08,15,16,19,12.40
2018,08,15,16,20,12.50
2018,08,15,16,21,12.70
2018,08,15,16,22,12.70
2018,08,15,16,23,12.70
2018,08,15,16,24,12.60
2018,08,15,16,25,12.60
2018,08,15,16,26,12.60
2018,08,15,16,27,12.60
2018,08,15,16,28,12.60
2018,08,15,16,29,12.50
2018,08,15,16,30,12.50
2018,08,15,16,31,12.50
2018,08,15,16,32,12.50
2018,08,15,16,33,12.50
2018,08,15,16,34,12.50
2018,08,15,16,35,12.50
2018,08,15,16,36,12.50
2018,08,15,16,37,12.40
2018,08,15,16,38,12.50
2018,08,15,16,39,12.60
2018,08,15,16,40,12.70
2018,08,15,16,41,13.00
2018,08,15,16,42,13.70
2018,08,15,16,43,14.40
2018,08,15,16,44,14.80
2018,08,15,16,45,14.70
2018,08,15,16,46,14.40
2018,08,15,16,47,14.10
2018,08,15,16,48,14.00
2018,08,15,16,49,13.90
2018,08,15,16,50,13.80
2018,08,15,16,51,13.90
2018,08,15,16,52,14.90
2018,08,15,16,53,16.40
2018,08,15,16,54,17.20
2018,08,15,16,55,17.60
2018,08,15,16,56,18.10
2018,08,15,16,57,17.90
2018,08,15,16,58,17.30
2018,08,15,16,59,16.90
2018,08,15,17,00,17.30
2018,08,15,17,01,17.20
2018,08,15,17,02,16.30
2018,08,15,17,03,17.60
2018,08,15,17,04,18.70
2018,08,15,17,05,18.90
2018,08,15,17,06,18.30
2018,08,15,17,07,17.40
2018,08,15,17,08,16.80
2018,08,15,17,09,17.00
2018,08,15,17,10,16.80
2018,08,15,17,11,17.00
2018,08,15,17,12,17.60
2018,08,15,17,13,17.90
2018,08,15,17,14,17.90
2018,08,15,17,15,17.90
2018,08,15,17,16,17.90
2018,08,15,17,17,17.90
2018,08,15,17,18,17.90
2018,08,15,17,19,17.30